FW7512 Weather Reports


time (UTC)temp
C
wind
direction
speed
KPH
gust
KPH
rain 1hr
cm
rain 24hr
cm
rain mn
cm
humidity
%
barometer
mb
20260505125030 15 142 0.0 1.6 0.00 0.08 0.08 94 1008.4
20260505124555 15 174 0.0 1.6 0.00 0.08 0.08 94 1008.5
20260505124042 15 174 0.0 1.6 0.00 0.08 0.08 94 1008.7
20260505123534 15 108 0.0 0.0 0.00 0.08 0.08 95 1008.6
20260505123059 15 108 0.0 3.2 0.00 0.08 0.08 95 1008.7
20260505122549 15 131 0.0 0.0 0.00 0.08 0.08 95 1008.8
20260505122038 14 131 0.0 1.6 0.00 0.08 0.08 95 1008.8
20260505121557 14 137 0.0 1.6 0.00 0.08 0.08 95 1008.7
20260505121049 14 141 0.0 0.0 0.00 0.08 0.08 95 1008.8
20260505120541 14 141 0.0 1.6 0.00 0.08 0.08 95 1009.0
20260505120008 -17 0.0 0.0 0.00 0.08 0.08 1008.9
20260505115502 -17 0.0 0.0 0.00 0.08 0.08 1008.9
20260505115058 -17 0.0 0.0 0.00 0.08 0.08 1008.8
20260505114528 -17 0.0 0.0 0.00 0.08 0.08 1008.9
20260505114016 -17 0.0 0.0 0.00 0.08 0.08 1008.6
20260505113514 -17 0.0 0.0 0.03 0.08 0.08 1008.4
20260505113105 -17 0.0 0.0 0.03 0.08 0.08 1008.4
20260505112539 -17 0.0 0.0 0.05 0.08 0.08 1008.0
20260505112032 -17 0.0 0.0 0.08 0.08 0.08 1007.8
20260505111550 -17 0.0 0.0 0.08 0.08 0.08 1007.9
20260505111043 -17 0.0 0.0 0.08 0.08 0.08 1007.9
20260505110531 -17 0.0 0.0 0.08 0.08 0.08 1008.0
20260505102048 15 190 0.0 1.6 0.00 0.00 0.00 89 1008.8
20260505101516 15 190 0.0 4.8 0.00 0.00 0.00 88 1008.9
20260505101007 15 190 0.0 6.4 0.00 0.00 0.00 86 1008.9
20260505100556 15 190 0.0 6.4 0.00 0.00 0.00 85 1009.1
20260505100012 15 190 0.0 4.8 0.00 0.00 0.00 84 1008.9
20260505095502 15 190 0.0 4.8 0.00 0.00 0.00 83 1008.7
20260505095056 15 190 0.0 4.8 0.00 0.00 0.00 82 1008.7
20260505094523 15 190 0.0 1.6 0.00 0.00 0.00 84 1008.3
20260505094015 15 190 0.0 0.0 0.00 0.00 0.00 85 1008.2
20260505093505 15 190 0.0 0.0 0.00 0.00 0.00 85 1008.0
20260505093024 15 190 0.0 0.0 0.00 0.00 0.00 83 1008.0
20260505092519 15 190 0.0 0.0 0.00 0.00 0.00 85 1008.0
20260505092006 15 190 0.0 0.0 0.00 0.00 0.00 85 1007.8
20260505091525 15 190 0.0 0.0 0.00 0.00 0.00 85 1007.7
20260505091018 15 190 0.0 0.0 0.00 0.00 0.00 85 1007.6
20260505090508 14 190 0.0 0.0 0.00 0.00 0.00 84 1007.5
20260505090036 14 190 0.0 0.0 0.00 0.00 0.00 84 1007.4
20260505085530 14 190 0.0 0.0 0.00 0.00 0.00 84 1007.3
20260505085022 14 190 0.0 0.0 0.00 0.00 0.00 84 1007.4
20260505084543 14 190 0.0 0.0 0.00 0.00 0.00 84 1007.3
20260505084023 14 190 0.0 0.0 0.00 0.00 0.00 85 1007.2
20260505083516 14 190 0.0 0.0 0.00 0.00 0.00 83 1007.2
20260505083047 14 190 0.0 0.0 0.00 0.00 0.00 83 1007.1
20260505082529 14 190 0.0 0.0 0.00 0.00 0.00 83 1007.0
20260505082021 14 190 0.0 0.0 0.00 0.00 0.00 83 1006.9
20260505081547 14 190 0.0 0.0 0.00 0.00 0.00 83 1006.9
20260505081031 15 190 0.0 0.0 0.00 0.00 0.00 84 1006.9
20260505080521 15 190 0.0 0.0 0.00 0.00 0.00 83 1006.9
20260505080112 15 190 0.0 0.0 0.00 0.00 0.00 83 1006.9
20260505075548 15 190 0.0 0.0 0.00 0.00 0.00 81 1007.0
20260505075039 15 190 0.0 0.0 0.00 0.00 0.00 81 1007.0
20260505074508 15 190 0.0 0.0 0.00 0.00 0.00 81 1006.9
20260505074058 15 190 0.0 1.6 0.00 0.00 0.00 80 1006.8
20260505073548 15 190 0.0 1.6 0.00 0.00 0.00 79 1006.8
20260505073007 15 190 0.0 0.0 0.00 0.00 0.00 79 1006.7
20260505072557 16 190 0.0 0.0 0.00 0.00 0.00 78 1006.5
20260505072046 16 190 0.0 0.0 0.00 0.00 0.00 76 1006.6
20260505071511 16 190 0.0 1.6 0.00 0.00 0.00 75 1006.5
20260505071003 16 190 0.0 1.6 0.00 0.00 0.00 73 1006.6
20260505070556 17 190 0.0 1.6 0.00 0.00 0.00 72 1006.5
20260505070012 17 190 0.0 4.8 0.00 0.00 0.00 71 1006.5
20260505065504 17 190 0.0 4.8 0.00 0.00 0.00 70 1006.5
20260505065058 17 190 0.0 3.2 0.00 0.00 0.00 70 1006.5
20260505064518 17 190 0.0 1.6 0.00 0.00 0.00 70 1006.4
20260505064015 17 190 0.0 1.6 0.00 0.00 0.00 70 1006.4
20260505063502 17 190 0.0 3.2 0.00 0.00 0.00 70 1006.5
20260505063029 17 190 0.0 3.2 0.00 0.00 0.00 70 1006.6
20260505062513 17 190 0.0 4.8 0.00 0.00 0.00 69 1006.6
20260505062007 17 190 0.0 4.8 0.00 0.00 0.00 69 1006.6
20260505061531 17 190 0.0 3.2 0.00 0.00 0.00 70 1006.5
20260505061021 17 190 0.0 3.2 0.00 0.00 0.00 69 1006.4
20260505060513 17 190 0.0 1.6 0.00 0.00 0.00 70 1006.3
20260505060037 17 190 0.0 1.6 0.00 0.00 0.00 70 1006.3
20260505055525 17 190 0.0 4.8 0.00 0.00 0.00 69 1006.2
20260505055018 17 190 0.0 8.0 0.00 0.00 0.00 69 1006.2
20260505054540 17 190 0.0 8.0 0.00 0.00 0.00 69 1006.1
20260505054036 17 190 0.0 4.8 0.00 0.00 0.00 70 1006.2
20260505053528 17 190 0.0 1.6 0.00 0.00 0.00 71 1006.1
20260505053110 17 190 0.0 0.0 0.00 0.00 0.00 72 1006.0
20260505052539 17 190 0.0 1.6 0.00 0.00 0.00 71 1005.9
20260505052036 17 190 0.0 1.6 0.00 0.00 0.00 72 1005.9
20260505051600 17 190 0.0 1.6 0.00 0.00 0.00 72 1006.0
20260505051051 17 190 0.0 0.0 0.00 0.00 0.00 73 1006.2
20260505050541 17 190 0.0 0.0 0.00 0.00 0.00 73 1006.3
20260505041518 18 190 0.0 0.0 0.00 0.00 0.00 71 1006.6
20260505041008 18 190 0.0 1.6 0.00 0.00 0.00 70 1006.6
20260505040600 18 190 0.0 1.6 0.00 0.00 0.00 70 1006.7
20260505040016 17 190 0.0 0.0 0.00 0.00 0.00 71 1006.7
20260505035509 17 190 0.0 0.0 0.00 0.00 0.00 72 1006.8
20260505035000 17 190 0.0 0.0 0.00 0.00 0.00 73 1006.7
20260505034524 17 190 0.0 0.0 0.00 0.00 0.00 72 1006.7
20260505034012 17 190 0.0 0.0 0.00 0.00 0.00 71 1006.7
20260505033507 18 190 0.0 0.0 0.00 0.00 0.00 72 1006.7
20260505033025 17 190 0.0 0.0 0.00 0.00 0.00 72 1006.6
20260505032518 17 190 0.0 1.6 0.00 0.00 0.00 73 1006.6
20260505032011 17 190 0.0 1.6 0.00 0.00 0.00 75 1006.6
20260505031531 17 190 0.0 0.0 0.00 0.00 0.00 76 1006.6
20260505031023 17 190 0.0 0.0 0.00 0.00 0.00 76 1006.4
20260505030515 16 190 0.0 1.6 0.00 0.00 0.00 77 1006.4
20260505030037 16 190 0.0 1.6 0.00 0.00 0.00 79 1006.4
20260505025531 16 190 0.0 0.0 0.00 0.00 0.00 80 1006.3
20260505025023 16 190 0.0 0.0 0.00 0.00 0.00 82 1006.2
20260505024548 16 190 0.0 0.0 0.00 0.00 0.00 82 1006.1
20260505024041 16 190 0.0 0.0 0.00 0.00 0.00 81 1006.0
20260505023534 16 190 0.0 0.0 0.00 0.00 0.00 81 1006.0
20260505023003 16 190 0.0 0.0 0.00 0.00 0.00 81 1005.9
20260505022557 16 190 0.0 0.0 0.00 0.00 0.00 81 1005.9
20260505022051 16 190 0.0 0.0 0.00 0.00 0.00 80 1005.9
20260505021508 16 190 0.0 0.0 0.00 0.00 0.00 80 1005.8
20260505021101 16 190 0.0 0.0 0.00 0.00 0.00 80 1005.7
20260505020555 16 190 0.0 0.0 0.00 0.00 0.00 80 1005.6
20260505020025 16 190 0.0 0.0 0.00 0.00 0.00 79 1005.5
20260505015519 16 190 0.0 0.0 0.00 0.00 0.00 78 1005.5
20260505015013 17 190 0.0 0.0 0.00 0.00 0.00 78 1005.5
20260505014535 17 190 0.0 0.0 0.00 0.00 0.00 77 1005.4
20260505014026 17 190 0.0 0.0 0.00 0.00 0.00 76 1005.4
20260505013523 17 190 0.0 0.0 0.00 0.00 0.00 77 1005.3
20260505013041 17 190 0.0 0.0 0.00 0.00 0.00 75 1005.2
20260505012532 17 190 0.0 0.0 0.00 0.00 0.00 75 1005.2
20260505012031 17 190 0.0 0.0 0.00 0.00 0.00 74 1005.2
20260505011606 18 190 0.0 0.0 0.00 0.00 0.00 74 1005.2
20260505011041 18 190 0.0 1.6 0.00 0.00 0.00 72 1005.2
20260505010535 18 190 0.0 0.0 0.00 0.00 0.00 72 1005.2
20260505010057 19 190 0.0 1.6 0.00 0.00 0.00 69 1005.1
20260505005547 20 190 0.0 1.6 0.00 0.00 0.00 68 1005.1
20260505005041 20 190 0.0 0.0 0.00 0.00 0.00 64 1005.1
20260505004511 21 190 0.0 0.0 0.00 0.00 0.00 64 1005.1
20260505004002 21 190 0.0 0.0 0.00 0.00 0.00 59 1005.1
20260505003555 21 190 0.0 0.0 0.00 0.00 0.00 58 1005.1
20260505003029 21 190 0.0 1.6 0.00 0.00 0.00 58 1005.1
20260505002524 21 190 0.0 1.6 0.00 0.00 0.00 56 1005.2
20260505002018 22 190 0.0 0.0 0.00 0.00 0.00 56 1005.2
20260505001534 22 190 0.0 1.6 0.00 0.00 0.00 55 1005.1
20260505001023 22 190 0.0 4.8 0.00 0.00 0.00 54 1005.2
20260505000516 22 190 0.0 1.6 0.00 0.00 0.00 54 1005.3
20260505000043 22 190 0.0 6.4 0.00 0.00 0.00 53 1005.4
20260504235530 22 190 0.0 6.4 0.00 0.00 0.00 53 1005.4
20260504235022 22 190 0.0 4.8 0.00 0.00 0.00 53 1005.5
20260504234543 23 190 0.0 4.8 0.00 0.00 0.00 53 1005.6
20260504234035 23 190 0.0 4.8 0.00 0.00 0.00 52 1005.6
20260504233529 23 190 0.0 1.6 0.00 0.00 0.00 53 1005.7
20260504233106 23 190 0.0 3.2 0.00 0.00 0.00 52 1005.6
20260504232543 23 190 0.0 3.2 0.00 0.00 0.00 51 1005.7
20260504232034 24 190 0.0 4.8 0.00 0.00 0.00 52 1005.6
20260504231558 24 190 0.0 6.4 0.00 0.00 0.00 49 1005.6
20260504231048 24 190 0.0 6.4 0.00 0.00 0.00 50 1005.6
20260504230539 24 190 0.0 16.1 0.00 0.00 0.00 50 1005.7
20260504230101 24 190 0.0 16.1 0.00 0.00 0.00 52 1005.7
20260504225556 24 190 0.0 1.6 0.00 0.00 0.00 54 1005.7
20260504225041 23 190 0.0 4.8 0.00 0.00 0.00 53 1005.8
20260504224512 23 190 0.0 3.2 0.00 0.00 0.00 55 1005.8
20260504224002 23 190 0.0 9.7 0.00 0.00 0.00 56 1005.8
20260504223557 24 190 0.0 9.7 0.00 0.00 0.00 55 1005.8
20260504223020 24 190 0.0 1.6 0.00 0.00 0.00 59 1005.9
20260504222508 25 190 0.0 1.6 0.00 0.00 0.00 57 1005.9
20260504222001 24 190 0.0 1.6 0.00 0.00 0.00 55 1005.8
20260504221523 24 190 0.0 9.7 0.00 0.00 0.00 55 1005.8
20260504221017 24 190 0.0 9.7 0.00 0.00 0.00 55 1005.8
20260504220504 24 190 0.0 0.0 0.00 0.00 0.00 58 1006.0
20260504220024 25 190 0.0 1.6 0.00 0.00 0.00 54 1006.2
20260504215512 25 190 0.0 3.2 0.00 0.00 0.00 53 1006.4
20260504215005 25 190 0.0 3.2 0.00 0.00 0.00 55 1006.5
20260504214525 25 190 0.0 0.0 0.00 0.00 0.00 57 1006.6
20260504214018 25 190 0.0 0.0 0.00 0.00 0.00 52 1006.5
20260504213508 25 190 0.0 3.2 0.00 0.00 0.00 53 1006.5
20260504213038 25 190 0.0 3.2 0.00 0.00 0.00 49 1006.7
20260504212529 25 190 0.0 1.6 0.00 0.00 0.00 52 1006.7
20260504212021 25 190 0.0 1.6 0.00 0.00 0.00 53 1006.8
20260504211541 26 190 0.0 4.8 0.00 0.00 0.00 53 1006.8
20260504211034 26 190 1.6 4.8 0.00 0.00 0.00 48 1007.0
20260504210525 26 190 0.0 3.2 0.00 0.00 0.00 54 1007.0
20260504210046 26 190 0.0 6.4 0.00 0.00 0.00 52 1007.0
20260504205539 25 190 0.0 6.4 0.00 0.00 0.00 53 1006.9
20260504205027 26 190 0.0 3.2 0.00 0.00 0.00 52 1007.1
20260504204546 26 190 0.0 8.0 0.00 0.00 0.00 51 1007.3
20260504204035 25 190 0.0 8.0 0.00 0.00 0.00 53 1007.5
20260504203527 25 190 1.6 4.8 0.00 0.00 0.00 54 1007.6
20260504203056 25 190 0.0 3.2 0.00 0.00 0.00 52 1007.5
20260504202539 25 190 0.0 11.3 0.00 0.00 0.00 53 1007.5
20260504202034 25 190 1.6 11.3 0.00 0.00 0.00 49 1007.6
20260504201544 25 190 0.0 6.4 0.00 0.00 0.00 50 1007.6
20260504201036 26 190 1.6 8.0 0.00 0.00 0.00 52 1007.6
20260504200524 26 190 0.0 4.8 0.00 0.00 0.00 52 1007.8
20260504200044 26 190 0.0 4.8 0.00 0.00 0.00 53 1007.6
20260504195532 25 190 0.0 3.2 0.00 0.00 0.00 55 1007.8
20260504195022 24 190 0.0 3.2 0.00 0.00 0.00 59 1007.9
20260504194547 24 190 0.0 4.8 0.00 0.00 0.00 56 1008.1
20260504194034 25 190 0.0 4.8 0.00 0.00 0.00 56 1008.4
20260504193523 24 190 0.0 4.8 0.00 0.00 0.00 61 1008.3
20260504193042 23 190 0.0 4.8 0.00 0.00 0.00 61 1008.3
20260504192531 23 190 0.0 3.2 0.00 0.00 0.00 62 1008.5
20260504192026 22 190 0.0 8.0 0.00 0.00 0.00 61 1008.4
20260504191605 23 190 0.0 8.0 0.00 0.00 0.00 62 1008.6
20260504191039 22 190 0.0 3.2 0.00 0.00 0.00 63 1008.7
20260504190531 22 190 0.0 1.6 0.00 0.00 0.00 64 1008.6
20260504190052 21 190 0.0 3.2 0.00 0.00 0.00 64 1008.8
20260504185543 21 190 0.0 4.8 0.00 0.00 0.00 64 1009.0
20260504185039 21 190 0.0 4.8 0.00 0.00 0.00 64 1009.0
20260504184558 21 190 0.0 6.4 0.00 0.00 0.00 64 1009.0
20260504184053 21 190 0.0 6.4 0.00 0.00 0.00 63 1009.0
20260504183544 22 190 0.0 4.8 0.00 0.00 0.00 61 1008.8
20260504183005 21 190 0.0 6.4 0.00 0.00 0.00 61 1008.8
20260504182601 21 190 0.0 9.7 0.00 0.00 0.00 61 1008.7
20260504182049 22 190 0.0 9.7 0.00 0.00 0.00 59 1008.6
20260504181507 22 190 0.0 4.8 0.00 0.00 0.00 61 1008.5
20260504181001 22 190 0.0 6.4 0.00 0.00 0.00 59 1008.4
20260504180601 22 190 1.6 6.4 0.00 0.00 0.00 59 1008.3
20260504180014 22 190 0.0 6.4 0.00 0.00 0.00 58 1008.1
20260504175513 22 190 0.0 6.4 0.00 0.00 0.00 59 1008.1
20260504175100 22 190 0.0 6.4 0.00 0.00 0.00 59 1008.1
20260504174517 22 190 0.0 6.4 0.00 0.00 0.00 62 1008.1
20260504174007 22 190 0.0 8.0 0.00 0.00 0.00 62 1008.2
20260504173559 22 190 1.6 8.0 0.00 0.00 0.00 60 1008.3
20260504173028 21 190 1.6 4.8 0.00 0.00 0.00 64 1008.6
20260504172516 21 190 0.0 1.6 0.00 0.00 0.00 63 1008.5
20260504172008 21 190 0.0 1.6 0.00 0.00 0.00 66 1008.2
20260504171543 21 190 0.0 3.2 0.00 0.00 0.00 63 1007.6
20260504171018 21 190 0.0 3.2 0.00 0.00 0.00 63 1008.2
20260504170507 21 190 0.0 3.2 0.00 0.00 0.00 62 1008.3
20260504151038 18 190 0.0 6.4 0.00 0.00 0.00 67 1009.4
20260504150532 18 190 0.0 8.0 0.00 0.00 0.00 66 1009.3
20260504141042 16 190 0.0 4.8 0.00 0.00 0.00 70 1009.6
20260504140532 16 190 0.0 4.8 0.00 0.00 0.00 71 1009.7